[[{"header":{"parameterUnit":"m.s-1","parameterCategory":2,"la1":30.2991,"la2":30.254,"lo1":-89.0895,"lo2":-89.0444,"dy":0.0017,"dx":0.0017,"nx":28,"ny":28,"refTime":"2024-05-22T21:00:00:Z","depth":"0","parameterNumber":2,"parameterNumberName":"U-component_of_CURRENTS"},"data":[0,0,0,0,0,0,0,0,0,0,0,0,0,0,0,0,0,0,0,0,0,0,0,0,0,0,0,0,0,0,0,0,0,0,0,0,0,0,0,0,0,0,0,0,0,0,0,0,0,0,0,0,0,0,0,0,0,0,0.2397,0.2398,0,0.2446,0.2447,0.2447,0.243,0.243,0.2429,0.2428,0.241,0.241,0.241,0,0,0,0,0,0,0,0,0,0,0,0,0,0.2277,0.2279,0.2397,0.2398,0.2399,0.2446,0.2447,0.2447,0.243,0.243,0.2429,0.2428,0.241,0.241,0.241,0,0,0,0,0,0,0,0,0,0,0,0,0,0.2324,0.2279,0.2397,0.2399,0.24,0.2446,0.2447,0.2447,0.2431,0.2429,0.2428,0.2427,0.241,0.241,0.241,0.2434,0,0,0.2411,0.2411,0,0,0,0,0,0,0,0,0.2322,0.2328,0.2398,0.2399,0.24,0.2434,0.2398,0.244,0.2431,0.2415,0.2428,0.2427,0.2415,0.2415,0.2422,0.2433,0.2432,0.2411,0.2411,0.2411,0.2411,0,0,0,0,0,0,0,0.2318,0.2326,0.2413,0.2399,0.2401,0.2394,0.2399,0.2406,0.2416,0.2416,0.2416,0.2428,0.2414,0.2422,0.2421,0.2432,0.2411,0.2411,0.2411,0.2412,0.2434,0.2434,0,0,0,0,0,0,0.2322,0.2323,0.2411,0.2414,0.2362,0.2398,0.2403,0.2421,0.2418,0.2418,0.2429,0.2427,0.2422,0.2421,0.242,0.2437,0.2411,0.2412,0.2412,0.2433,0.2434,0.2434,0,0,0,0,0,0,0.232,0.233,0.2409,0.2372,0.2382,0.2401,0.2422,0.2423,0.2432,0.2429,0.2426,0.2436,0.2421,0.242,0.2426,0.2436,0.2412,0.2412,0.2433,0.2434,0.2434,0.2476,0,0,0,0,0,0,0.2316,0.2329,0.2343,0.2373,0.2385,0.2439,0.2423,0.2425,0.2443,0.244,0.2435,0.2432,0.242,0.2425,0.2426,0.2436,0.2412,0.2432,0.2433,0.2434,0.2474,0.2478,0.2481,0,0,0,0,0,0.2312,0.2335,0.2344,0.2354,0.2404,0.244,0.2445,0.2451,0.2444,0.2453,0.2446,0.2432,0.243,0.2427,0.2427,0.2437,0.2432,0.2433,0.2434,0.2472,0.2477,0.2481,0,0,0,0,0,0,0.2291,0.2338,0.2347,0.2384,0.2412,0.2438,0.2454,0.2458,0.2462,0.2458,0.2444,0.2442,0.2448,0.2439,0.2435,0.2444,0.2427,0.2428,0.2456,0.246,0.2464,0.2482,0.2412,0,0,0,0,0,0.2296,0.2326,0.2365,0.2395,0.2412,0.2434,0.245,0.2457,0.2468,0.2469,0.2463,0.2456,0.2455,0.2454,0.2451,0.2464,0.2525,0.2468,0.2471,0.2475,0.249,0.2595,0.2611,0.2438,0.2438,0.2438,0,0,0.2298,0.2328,0.2345,0.2393,0.2416,0.244,0.244,0.247,0.248,0.2466,0.2473,0.2471,0.2461,0.2469,0.2471,0.2462,0.2562,0.2476,0.2479,0.2492,0.2598,0.2616,0.2631,0.2438,0.2438,0.2438,0,0,0.2315,0.2345,0.2373,0.2396,0.2438,0.2451,0.2461,0.2491,0.2493,0.2508,0.2496,0.2503,0.25,0.2498,0.2495,0.2519,0.2578,0.2515,0.2551,0.2654,0.267,0.2685,0.282,0.2847,0.2517,0.2517,0.2517,0,0.2312,0.2352,0.2385,0.2414,0.2431,0.2456,0.2478,0.2491,0.2513,0.2528,0.251,0.2538,0.2513,0.2544,0.2539,0.2528,0.2619,0.2536,0.2663,0.2678,0.2693,0.2828,0.2857,0.2519,0.2519,0.2519,0.2519,0,0.2346,0.2374,0.2393,0.2433,0.2458,0.2482,0.2508,0.2529,0.2533,0.255,0.2586,0.2577,0.2605,0.2585,0.2562,0.2645,0.269,0.2659,0.2659,0.2714,0.2852,0.2881,0.2522,0.2522,0.2521,0.252,0,0,0.2342,0.2402,0.2407,0.2425,0.2466,0.2491,0.2517,0.2556,0.2598,0.2608,0.2676,0.2645,0.2676,0.2675,0.2668,0.2728,0.2892,0.274,0.2745,0.289,0.3178,0.3154,0.3184,0.2904,0.2908,0.2912,0.3247,0,0.2352,0.2397,0.2426,0.246,0.2482,0.2514,0.2546,0.2585,0.2622,0.2697,0.2711,0.2768,0.2703,0.2744,0.2795,0.2874,0.2967,0.2807,0.309,0.3099,0.3082,0.3214,0.3117,0.3403,0.3276,0.3281,0.3284,0,0.2364,0.2395,0.2426,0.248,0.2497,0.2522,0.2596,0.2632,0.2732,0.2774,0.2849,0.2891,0.2986,0.2923,0.3121,0.3038,0.3117,0.3166,0.318,0.3162,0.3128,0.3319,0.3461,0.3372,0.333,0.3326,0.3323,0,0.2334,0.239,0.2411,0.2426,0.2495,0.2523,0.2567,0.2654,0.2722,0.2855,0.2953,0.3056,0.3159,0.3259,0.3342,0.3275,0.3579,0.3501,0.3564,0.3566,0.3537,0.3527,0.3633,0.3662,0.3662,0.3661,0.366,0,0.2324,0.2342,0.2402,0.2415,0.2475,0.2519,0.2607,0.2674,0.281,0.2931,0.3009,0.3142,0.3251,0.3416,0.346,0.3631,0.3694,0.3624,0.366,0.3549,0.3536,0.3495,0.3425,0.3673,0.3671,0.3668,0.3666,0,0.2303,0.2321,0.2369,0.2441,0.2462,0.2517,0.2644,0.2727,0.2849,0.3029,0.3094,0.3285,0.3504,0.3616,0.3818,0.3808,0.3852,0.3974,0.385,0.3862,0.3779,0.3714,0.3726,0.3619,0.413,0.4131,0.4133,0,0.2308,0.2322,0.2399,0.2432,0.2469,0.2549,0.2618,0.2738,0.2844,0.3106,0.3211,0.347,0.3624,0.3925,0.3992,0.4151,0.3965,0.4117,0.3923,0.3811,0.3767,0.3555,0.3446,0.394,0.394,0.3939,0.3939,0,0.2347,0.2366,0.2412,0.2474,0.2536,0.2603,0.271,0.2783,0.2955,0.3107,0.3315,0.3456,0.3776,0.3889,0.409,0.4139,0.3917,0.4113,0.4038,0.3674,0.3414,0.3314,0.3705,0.3936,0.3936,0.3937,0.3937,0.3937,0.2396,0.2432,0.2481,0.2526,0.2586,0.2622,0.2652,0.277,0.2898,0.3084,0.3295,0.3471,0.3734,0.3995,0.4019,0.402,0.3933,0.392,0.3882,0.37,0.3477,0.3866,0.408,0.4081,0.4082,0.4083,0.4083,0,0.2443,0.2462,0.2526,0.2554,0.258,0.2614,0.269,0.2698,0.2777,0.3,0.3164,0.3447,0.3613,0.3777,0.3919,0.3813,0.3586,0.3718,0.3404,0.3329,0.3761,0.3626,0.3697,0.3697,0.3697,0.3697,0.3697,0.3697,0.2464,0.2504,0.2505,0.252,0.253,0.2519,0.252,0.2543,0.265,0.2791,0.2951,0.315,0.348,0.3728,0.3716,0.3635,0.3329,0.3212,0.3156,0.3474,0.3487,0.35,0.3357,0.337,0.3369,0.2588,0.2583,0.2579]},{"header":{"parameterUnit":"m.s-1","parameterCategory":2,"la1":30.2991,"la2":30.254,"lo1":-89.0895,"lo2":-89.0444,"dy":0.0017,"dx":0.0017,"nx":28,"ny":28,"refTime":"2024-05-22T21:00:00:Z","depth":"0","parameterNumber":3,"parameterNumberName":"V-component_of_CURRENTS"},"data":[0,0,0,0,0,0,0,0,0,0,0,0,0,0,0,0,0,0,0,0,0,0,0,0,0,0,0,0,0,0,0,0,0,0,0,0,0,0,0,0,0,0,0,0,0,0,0,0,0,0,0,0,0,0,0,0,0,0,0.004,0.0039,0,-0.006,-0.0061,-0.0063,-0.0102,-0.0101,-0.0101,-0.0101,-0.0205,-0.0207,-0.0211,0,0,0,0,0,0,0,0,0,0,0,0,0,0.0131,0.013,0.004,0.0039,0.0037,-0.006,-0.0061,-0.0063,-0.0102,-0.0101,-0.0101,-0.0101,-0.0203,-0.0207,-0.0211,0,0,0,0,0,0,0,0,0,0,0,0,0,0.0067,0.013,0.004,0.0007,0.0003,-0.006,-0.0061,-0.0063,-0.0102,-0.0101,-0.0101,-0.01,-0.0202,-0.0207,-0.0211,-0.025,0,0,-0.0225,-0.0227,0,0,0,0,0,0,0,0,0.0071,0.0064,0.0013,0.0009,0.0005,-0.0067,-0.0067,-0.0126,-0.0102,-0.0063,-0.0101,-0.01,-0.0159,-0.0167,-0.0188,-0.0255,-0.0259,-0.0226,-0.0229,-0.0231,-0.0232,0,0,0,0,0,0,0,0.0075,0.0067,-0.0001,0.0012,0.0006,-0.0025,-0.0034,-0.0079,-0.0113,-0.0066,-0.0069,-0.0079,-0.0161,-0.0183,-0.0191,-0.0261,-0.0226,-0.023,-0.0233,-0.0234,-0.0361,-0.0362,0,0,0,0,0,0,0.0092,0.0072,0.0003,-0.0004,0.004,-0.0027,-0.0036,-0.0045,-0.0113,-0.0122,-0.008,-0.0081,-0.0176,-0.0185,-0.0194,-0.0231,-0.0231,-0.0235,-0.0238,-0.036,-0.0361,-0.0362,0,0,0,0,0,0,0.0094,0.0087,0.0007,0.0032,0.002,-0.0029,-0.0039,-0.0048,-0.007,-0.0123,-0.0132,-0.0092,-0.0176,-0.0188,-0.0234,-0.0236,-0.0237,-0.0241,-0.036,-0.0361,-0.0362,-0.0313,0,0,0,0,0,0,0.0097,0.0088,0.0084,0.0034,0.0019,-0.0027,-0.004,-0.005,-0.0076,-0.0079,-0.0137,-0.0146,-0.0176,-0.0227,-0.0239,-0.0242,-0.0245,-0.0359,-0.036,-0.0361,-0.0314,-0.0312,-0.0311,0,0,0,0,0,0.0101,0.009,0.0084,0.0075,0.0016,-0.0027,-0.0037,-0.0071,-0.0077,-0.0089,-0.0127,-0.0144,-0.0242,-0.0231,-0.0245,-0.025,-0.0358,-0.036,-0.0361,-0.0315,-0.0312,-0.0311,0,0,0,0,0,0,0.0123,0.0084,0.0076,0.0053,0.0021,-0.0033,-0.0051,-0.0071,-0.0111,-0.0112,-0.0157,-0.017,-0.0212,-0.0241,-0.0228,-0.0291,-0.0302,-0.0306,-0.0262,-0.026,-0.0259,-0.0211,-0.0249,0,0,0,0,0,0.0129,0.0111,0.0072,0.0053,0.004,-0.0003,-0.0026,-0.0046,-0.0087,-0.0104,-0.0143,-0.0186,-0.023,-0.0251,-0.0296,-0.0331,-0.0321,-0.0343,-0.0342,-0.034,-0.0311,-0.0311,-0.0305,-0.0366,-0.0366,-0.0366,0,0,0.0131,0.0107,0.0097,0.0057,0.0028,0.0015,-0.0016,-0.0047,-0.0055,-0.011,-0.0138,-0.0187,-0.0241,-0.028,-0.03,-0.0301,-0.0317,-0.0342,-0.0339,-0.0311,-0.0311,-0.0305,-0.0299,-0.0367,-0.0367,-0.0367,0,0,0.0136,0.0109,0.0104,0.0082,0.0047,0.0021,0.0016,-0.0031,-0.0049,-0.0085,-0.0126,-0.0169,-0.0236,-0.0271,-0.0298,-0.0316,-0.0313,-0.0336,-0.0284,-0.0284,-0.0278,-0.0272,-0.0241,-0.0233,-0.0329,-0.0329,-0.0329,0,0.0144,0.0136,0.0095,0.0089,0.0079,0.0031,0.0034,0.0001,-0.0054,-0.0056,-0.0084,-0.0164,-0.0227,-0.0254,-0.0269,-0.0309,-0.0292,-0.0285,-0.0278,-0.0273,-0.0268,-0.0237,-0.0228,-0.0327,-0.0327,-0.0327,-0.0328,0,0.0154,0.0149,0.0141,0.0127,0.0106,0.0095,0.0058,0.0042,0.0015,-0.0008,-0.004,-0.012,-0.015,-0.0197,-0.0244,-0.0246,-0.0238,-0.0278,-0.0273,-0.0258,-0.0227,-0.0219,-0.0324,-0.0324,-0.0325,-0.0326,0,0,0.0177,0.0157,0.0157,0.0174,0.0131,0.0126,0.0109,0.0096,0.0129,0.0052,0.0093,-0.0032,-0.005,-0.0082,-0.0145,-0.0166,-0.0144,-0.02,-0.0202,-0.0148,-0.0106,-0.0133,-0.0128,-0.0175,-0.0174,-0.0173,-0.0093,0,0.0206,0.0224,0.0196,0.022,0.0233,0.0194,0.0201,0.0183,0.0167,0.0193,0.0111,0.0117,-0.0012,-0.0002,-0.0053,-0.0112,-0.0122,-0.0159,-0.0145,-0.0143,-0.0154,-0.012,-0.0148,-0.0082,-0.0085,-0.0084,-0.0083,0,0.0237,0.0248,0.0283,0.0307,0.0312,0.0326,0.0361,0.0362,0.0367,0.0365,0.0343,0.0299,0.0253,0.0157,0.0068,0.0057,-0.0013,-0.0071,-0.007,-0.01,-0.0157,-0.0103,-0.0068,-0.0263,-0.0071,-0.0072,-0.0073,0,0.0305,0.0315,0.0356,0.0358,0.0372,0.0401,0.0417,0.0428,0.0493,0.0507,0.0585,0.0482,0.0509,0.0373,0.0219,0.0164,0.0151,0.006,-0.0024,-0.0025,-0.0047,-0.0053,-0.0182,0.0023,0.0023,0.0023,0.0023,0,0.0358,0.0395,0.0406,0.0435,0.0532,0.0498,0.0616,0.0622,0.0697,0.0829,0.0707,0.0806,0.0569,0.0519,0.0325,0.0194,0.0234,0.0016,-0.0004,-0.0033,-0.0039,-0.021,-0.0331,0.0026,0.0025,0.0025,0.0024,0,0.0456,0.0435,0.0513,0.055,0.0575,0.0662,0.0782,0.0889,0.0921,0.1106,0.1139,0.1098,0.1009,0.0772,0.0588,0.0384,0.011,0.0166,0.0161,0.0137,-0.0173,-0.0288,-0.0385,-0.0477,0.0085,0.0085,0.0085,0,0.0519,0.0566,0.0642,0.0714,0.075,0.0863,0.0971,0.1016,0.1151,0.1301,0.1428,0.1393,0.1392,0.1095,0.0701,0.0384,0.0162,0.0168,0.0022,-0.0167,-0.031,-0.0384,-0.0461,0.0023,0.0023,0.0022,0.0022,0,0.0691,0.0716,0.0791,0.0923,0.1042,0.1171,0.132,0.1446,0.1544,0.1689,0.1849,0.1856,0.1566,0.1212,0.0761,0.0506,0.0007,0.0148,-0.0051,-0.0362,-0.0444,-0.0549,-0.0032,0.0017,0.0018,0.0018,0.0018,0.0018,0.0863,0.0954,0.1048,0.1169,0.1304,0.146,0.1576,0.1736,0.1939,0.2133,0.2134,0.2164,0.1652,0.1001,0.0657,-0.0017,-0.0016,-0.0239,-0.0352,-0.0398,-0.0537,-0.0015,-0.0003,-0.0003,-0.0002,-0.0002,-0.0002,0,0.1076,0.1146,0.1285,0.1422,0.1578,0.1594,0.1807,0.1924,0.2143,0.2305,0.2402,0.2134,0.1524,0.0887,-0.0005,-0.0433,-0.061,-0.0678,-0.0811,-0.0861,-0.0392,-0.045,-0.0531,-0.0531,-0.053,-0.053,-0.053,-0.053,0.1201,0.1352,0.138,0.1631,0.1726,0.1912,0.2012,0.2186,0.2315,0.2454,0.2438,0.2389,0.1886,0.0357,-0.0681,-0.0933,-0.1205,-0.1267,-0.1393,-0.1121,-0.1089,-0.1059,-0.1142,-0.1367,-0.1368,-0.182,-0.1825,-0.1828]}],[{"header":{"parameterUnit":"m.s-1","parameterCategory":2,"la1":30.2991,"la2":30.254,"lo1":-89.0895,"lo2":-89.0444,"dy":0.0017,"dx":0.0017,"nx":28,"ny":28,"refTime":"2024-05-22T21:00:00:Z","depth":"2","parameterNumber":2,"parameterNumberName":"U-component_of_CURRENTS"},"data":[0,0,0,0,0,0,0,0,0,0,0,0,0,0,0,0,0,0,0,0,0,0,0,0,0,0,0,0,0,0,0,0,0,0,0,0,0,0,0,0,0,0,0,0,0,0,0,0,0,0,0,0,0,0,0,0,0,0,0.2281,0.2283,0,0.2398,0.2399,0.2399,0.2355,0.2353,0.2351,0.2349,0.2324,0.2326,0.2327,0,0,0,0,0,0,0,0,0,0,0,0,0,0.2096,0.2098,0.2281,0.2283,0.2286,0.2398,0.2399,0.24,0.2355,0.2353,0.2351,0.2349,0.2324,0.2325,0.2327,0,0,0,0,0,0,0,0,0,0,0,0,0,0.2183,0.2099,0.2281,0.2283,0.2285,0.2398,0.2399,0.24,0.2356,0.2353,0.235,0.2347,0.2324,0.2325,0.2327,0.2396,0,0,0.2332,0.2333,0,0,0,0,0,0,0,0,0.2178,0.2189,0.2281,0.2283,0.2286,0.2366,0.2325,0.2394,0.2357,0.2321,0.2349,0.2346,0.2333,0.2333,0.2353,0.2395,0.2394,0.2332,0.2333,0.2334,0.2335,0,0,0,0,0,0,0,0.2172,0.2184,0.2319,0.2283,0.2287,0.2305,0.2312,0.2338,0.2333,0.2324,0.2323,0.2349,0.2331,0.2351,0.2351,0.2394,0.2332,0.2334,0.2335,0.2336,0.2404,0.2405,0,0,0,0,0,0,0.2174,0.2179,0.2316,0.2324,0.2233,0.2311,0.2319,0.2337,0.2336,0.2336,0.2352,0.2347,0.235,0.2349,0.235,0.2369,0.2334,0.2336,0.2337,0.2404,0.2405,0.2405,0,0,0,0,0,0,0.2169,0.2184,0.2311,0.226,0.2278,0.2317,0.2338,0.2341,0.2358,0.236,0.2355,0.2366,0.2347,0.2348,0.2359,0.2369,0.2337,0.2338,0.2403,0.2404,0.2405,0.2447,0,0,0,0,0,0,0.2163,0.2182,0.2202,0.226,0.2282,0.2371,0.2342,0.2345,0.2383,0.2377,0.2372,0.2366,0.2345,0.2356,0.236,0.2371,0.2339,0.2402,0.2403,0.2405,0.2445,0.2449,0.2454,0,0,0,0,0,0.2156,0.2208,0.2202,0.222,0.2306,0.2373,0.2385,0.2398,0.2387,0.24,0.2387,0.2366,0.2367,0.2359,0.2364,0.2375,0.2401,0.2403,0.2405,0.2443,0.2448,0.2453,0,0,0,0,0,0,0.214,0.2211,0.2205,0.2274,0.2312,0.2368,0.2408,0.2412,0.242,0.2411,0.239,0.2385,0.2394,0.2389,0.238,0.2398,0.2377,0.238,0.2404,0.241,0.2414,0.2425,0.2341,0,0,0,0,0,0.2148,0.2204,0.2252,0.2308,0.2331,0.2368,0.2402,0.2407,0.2428,0.243,0.2422,0.2413,0.2413,0.2412,0.2411,0.244,0.2475,0.2446,0.245,0.2454,0.2465,0.2553,0.2567,0.2411,0.2411,0.2411,0,0,0.2166,0.221,0.2244,0.2309,0.2344,0.2375,0.2379,0.2436,0.2445,0.2428,0.2437,0.2435,0.2424,0.2436,0.244,0.2429,0.2515,0.2456,0.246,0.2469,0.2556,0.2572,0.2586,0.2413,0.2412,0.2412,0,0,0.2214,0.2257,0.2302,0.2333,0.2389,0.2409,0.2424,0.247,0.2469,0.2492,0.247,0.2478,0.2485,0.2475,0.2472,0.251,0.2537,0.2507,0.2542,0.2627,0.2641,0.2654,0.2715,0.2733,0.251,0.251,0.251,0,0.2218,0.2275,0.2327,0.236,0.2388,0.2418,0.2443,0.2464,0.2498,0.251,0.2488,0.2521,0.25,0.2527,0.2523,0.252,0.2576,0.2521,0.2636,0.2649,0.2662,0.2721,0.2741,0.2512,0.2512,0.2511,0.2511,0,0.228,0.2317,0.2354,0.2389,0.2425,0.2466,0.249,0.2514,0.252,0.2533,0.2567,0.2563,0.2585,0.2573,0.2554,0.2628,0.2641,0.2634,0.2626,0.2681,0.2739,0.2758,0.2515,0.2514,0.2514,0.2513,0,0,0.2296,0.2374,0.2381,0.2385,0.2439,0.2468,0.2501,0.2537,0.2573,0.2587,0.2638,0.2624,0.2649,0.2648,0.2645,0.27,0.2815,0.2709,0.2712,0.2776,0.3012,0.2941,0.2955,0.285,0.2853,0.2856,0.3016,0,0.231,0.2356,0.2402,0.2432,0.2449,0.2489,0.2521,0.2557,0.2597,0.2655,0.2669,0.2714,0.2672,0.2706,0.2754,0.2811,0.2871,0.2772,0.2943,0.2948,0.2885,0.2976,0.275,0.2868,0.3035,0.3038,0.3041,0,0.2334,0.2361,0.2389,0.2435,0.245,0.2475,0.2542,0.258,0.2669,0.2709,0.2775,0.2809,0.2884,0.2848,0.2986,0.2939,0.298,0.3012,0.3019,0.2954,0.2913,0.2841,0.2897,0.3074,0.3071,0.3068,0.3066,0,0.2292,0.2346,0.2361,0.2376,0.2438,0.2465,0.2505,0.2593,0.2645,0.277,0.2846,0.2931,0.3004,0.3081,0.3132,0.3093,0.3292,0.3245,0.3216,0.321,0.3048,0.3022,0.3354,0.3354,0.3353,0.3353,0.3352,0,0.2283,0.2292,0.2341,0.235,0.2386,0.2439,0.2522,0.2578,0.2694,0.2797,0.2881,0.2978,0.3076,0.3186,0.321,0.3284,0.3364,0.3249,0.3262,0.3053,0.3027,0.322,0.3202,0.3359,0.3357,0.3356,0.3355,0,0.2242,0.2271,0.2292,0.2348,0.2369,0.2398,0.2522,0.2598,0.271,0.2862,0.2914,0.3053,0.3206,0.3287,0.3424,0.3387,0.3457,0.3454,0.3188,0.3165,0.3296,0.3279,0.3454,0.3453,0.3452,0.3452,0.3451,0,0.2241,0.224,0.2283,0.2313,0.2344,0.2413,0.2485,0.2591,0.2685,0.2903,0.2969,0.315,0.3247,0.3402,0.341,0.347,0.3494,0.3264,0.3124,0.332,0.3315,0.3298,0.3282,0.2929,0.2924,0.2921,0.2917,0,0.2245,0.2246,0.2265,0.2313,0.2373,0.2437,0.2538,0.2568,0.2739,0.284,0.2968,0.305,0.3247,0.319,0.3272,0.3256,0.3233,0.3185,0.3513,0.2924,0.2834,0.2826,0.2826,0.2883,0.2886,0.2889,0.2891,0.2892,0.2258,0.2265,0.2295,0.2306,0.2387,0.2412,0.2408,0.2515,0.257,0.2651,0.2831,0.2883,0.2988,0.2965,0.2926,0.2905,0.3093,0.295,0.2959,0.2973,0.2869,0.2782,0.28,0.2803,0.2806,0.2808,0.281,0,0.2239,0.2254,0.2299,0.2305,0.2319,0.2392,0.2421,0.236,0.2341,0.2503,0.2569,0.243,0.2439,0.2551,0.2484,0.2503,0.2439,0.2397,0.2298,0.2337,0.2371,0.223,0.1996,0.1993,0.199,0.1987,0,0,0.2242,0.2237,0.2216,0.22,0.2228,0.2207,0.2165,0.2069,0.2104,0.2041,0.2083,0.2293,0.2476,0.2182,0.2185,0.2085,0.2176,0.2006,0.2672,0.2595,0.2623,0.272,0.2553,0,0,0,0,0]},{"header":{"parameterUnit":"m.s-1","parameterCategory":2,"la1":30.2991,"la2":30.254,"lo1":-89.0895,"lo2":-89.0444,"dy":0.0017,"dx":0.0017,"nx":28,"ny":28,"refTime":"2024-05-22T21:00:00:Z","depth":"2","parameterNumber":3,"parameterNumberName":"V-component_of_CURRENTS"},"data":[0,0,0,0,0,0,0,0,0,0,0,0,0,0,0,0,0,0,0,0,0,0,0,0,0,0,0,0,0,0,0,0,0,0,0,0,0,0,0,0,0,0,0,0,0,0,0,0,0,0,0,0,0,0,0,0,0,0,-0.0103,-0.0104,0,-0.0191,-0.0192,-0.0194,-0.0231,-0.0231,-0.023,-0.023,-0.0327,-0.033,-0.0333,0,0,0,0,0,0,0,0,0,0,0,0,0,-0.0046,-0.0047,-0.0103,-0.0104,-0.0105,-0.0191,-0.0192,-0.0194,-0.0231,-0.023,-0.023,-0.023,-0.0326,-0.033,-0.0333,0,0,0,0,0,0,0,0,0,0,0,0,0,-0.0098,-0.0047,-0.0103,-0.0133,-0.0136,-0.0191,-0.0192,-0.0194,-0.0231,-0.023,-0.023,-0.023,-0.0325,-0.0329,-0.0334,-0.037,0,0,-0.0347,-0.0349,0,0,0,0,0,0,0,0,-0.0095,-0.01,-0.0127,-0.0131,-0.0135,-0.0198,-0.0208,-0.0253,-0.0231,-0.0197,-0.023,-0.0229,-0.0284,-0.0292,-0.0312,-0.0375,-0.0379,-0.0347,-0.035,-0.0352,-0.0353,0,0,0,0,0,0,0,-0.0091,-0.0097,-0.014,-0.0128,-0.0133,-0.0169,-0.0175,-0.0217,-0.0244,-0.02,-0.0202,-0.0209,-0.0286,-0.0308,-0.0314,-0.038,-0.0347,-0.0351,-0.0354,-0.0355,-0.0475,-0.0476,0,0,0,0,0,0,-0.0073,-0.0093,-0.0137,-0.0142,-0.0111,-0.0169,-0.0177,-0.018,-0.0243,-0.0252,-0.021,-0.0211,-0.03,-0.0309,-0.0318,-0.0351,-0.0352,-0.0356,-0.0358,-0.0475,-0.0475,-0.0476,0,0,0,0,0,0,-0.0072,-0.0076,-0.0133,-0.0119,-0.0128,-0.017,-0.0174,-0.0182,-0.02,-0.025,-0.0259,-0.022,-0.03,-0.0312,-0.0354,-0.0355,-0.0358,-0.0362,-0.0474,-0.0475,-0.0476,-0.0425,0,0,0,0,0,0,-0.0069,-0.0075,-0.0074,-0.0117,-0.0128,-0.0162,-0.0174,-0.0184,-0.0205,-0.0207,-0.0262,-0.0271,-0.0301,-0.0347,-0.0358,-0.0361,-0.0365,-0.0473,-0.0474,-0.0475,-0.0426,-0.0424,-0.0422,0,0,0,0,0,-0.0067,-0.0069,-0.0073,-0.0079,-0.0124,-0.0162,-0.0171,-0.0201,-0.0205,-0.0216,-0.0251,-0.0269,-0.0362,-0.0352,-0.0364,-0.0368,-0.0473,-0.0474,-0.0475,-0.0427,-0.0424,-0.0422,0,0,0,0,0,0,-0.0045,-0.0074,-0.008,-0.009,-0.0119,-0.0167,-0.0181,-0.0199,-0.0237,-0.0236,-0.028,-0.0292,-0.0331,-0.036,-0.0347,-0.0407,-0.0419,-0.0423,-0.0378,-0.0376,-0.0374,-0.0329,-0.0369,0,0,0,0,0,-0.0037,-0.0046,-0.0079,-0.0087,-0.01,-0.0139,-0.0158,-0.0175,-0.0213,-0.0229,-0.0265,-0.0306,-0.0349,-0.0368,-0.0412,-0.0445,-0.0452,-0.0456,-0.0454,-0.0452,-0.0425,-0.0439,-0.0435,-0.048,-0.048,-0.048,0,0,-0.0031,-0.0048,-0.0053,-0.0083,-0.0109,-0.012,-0.015,-0.0174,-0.018,-0.0234,-0.0258,-0.0305,-0.0358,-0.0395,-0.0414,-0.0416,-0.0448,-0.0454,-0.0451,-0.0425,-0.0439,-0.0435,-0.043,-0.0481,-0.0481,-0.0481,0,0,-0.002,-0.0037,-0.0037,-0.0056,-0.0086,-0.011,-0.0113,-0.0155,-0.0172,-0.0204,-0.0244,-0.0286,-0.035,-0.0384,-0.041,-0.0426,-0.0442,-0.0445,-0.0394,-0.0409,-0.0404,-0.04,-0.0418,-0.0415,-0.0439,-0.0439,-0.0439,0,-0.0007,-0.0008,-0.0045,-0.0047,-0.0053,-0.0099,-0.0094,-0.0124,-0.0173,-0.0175,-0.0202,-0.0281,-0.034,-0.0368,-0.038,-0.0419,-0.0425,-0.0396,-0.0403,-0.0399,-0.0396,-0.0414,-0.0413,-0.0437,-0.0437,-0.0437,-0.0438,0,0.0005,0.0009,0.0005,-0.0005,-0.0022,-0.0029,-0.0064,-0.0078,-0.0103,-0.0124,-0.0158,-0.0236,-0.0269,-0.0312,-0.0354,-0.0363,-0.0376,-0.0401,-0.0399,-0.0387,-0.0409,-0.0408,-0.0434,-0.0435,-0.0435,-0.0436,0,0,0.0036,0.002,0.0024,0.004,0.0005,0.0001,-0.0011,-0.0023,0.0003,-0.0066,-0.0044,-0.0148,-0.0172,-0.0203,-0.0265,-0.0291,-0.0302,-0.0328,-0.033,-0.0327,-0.0326,-0.038,-0.0384,-0.0321,-0.032,-0.0319,-0.0355,0,0.0066,0.0089,0.0064,0.0093,0.0106,0.0071,0.0075,0.0058,0.0042,0.0048,-0.003,-0.0039,-0.0135,-0.0139,-0.0186,-0.0265,-0.0294,-0.0289,-0.0352,-0.0353,-0.0388,-0.0383,-0.0348,-0.038,-0.0354,-0.0354,-0.0354,0,0.0098,0.0112,0.0149,0.0172,0.0176,0.0188,0.0216,0.0214,0.0201,0.0192,0.0164,0.0114,0.0057,-0.0019,-0.0134,-0.0121,-0.0212,-0.0283,-0.0286,-0.0343,-0.0404,-0.0387,-0.0379,-0.0352,-0.0352,-0.0353,-0.0353,0,0.0162,0.0179,0.0221,0.0224,0.0233,0.0259,0.0268,0.027,0.0291,0.0304,0.0338,0.0251,0.0229,0.0111,-0.0061,-0.008,-0.0182,-0.0229,-0.0364,-0.0369,-0.0353,-0.0359,-0.0296,-0.0296,-0.0296,-0.0296,-0.0296,0,0.0214,0.0252,0.0265,0.0292,0.0359,0.0341,0.0428,0.0421,0.0439,0.0506,0.0432,0.0455,0.0265,0.0171,0.0005,-0.0175,-0.0133,-0.0341,-0.0376,-0.034,-0.0344,-0.033,-0.0333,-0.0297,-0.0297,-0.0296,-0.0296,0,0.0283,0.0287,0.0343,0.0375,0.0395,0.045,0.0517,0.0581,0.0596,0.0683,0.0696,0.0607,0.0492,0.0288,0.0089,-0.008,-0.0251,-0.0328,-0.0281,-0.0311,-0.0443,-0.0444,-0.0463,-0.0465,-0.0467,-0.0468,-0.0469,0,0.0325,0.0357,0.0412,0.0459,0.0482,0.0568,0.0635,0.0657,0.071,0.0783,0.0811,0.0736,0.0671,0.0344,0.0048,-0.0233,-0.0273,-0.0386,-0.0434,-0.0425,-0.0457,-0.0455,-0.0453,-0.0397,-0.0398,-0.0398,-0.0398,0,0.0397,0.0411,0.0453,0.0542,0.0624,0.0731,0.081,0.084,0.09,0.0945,0.0969,0.0933,0.068,0.0378,-0.0005,-0.0197,-0.0341,-0.0407,-0.0383,-0.0372,-0.0369,-0.0399,-0.0398,-0.0402,-0.0402,-0.0402,-0.0401,-0.0401,0.0447,0.049,0.0538,0.0579,0.073,0.0841,0.088,0.0986,0.1039,0.1091,0.1055,0.1037,0.0758,0.025,-0.0065,-0.0381,-0.039,-0.05,-0.0495,-0.0491,-0.0489,-0.049,-0.0545,-0.0546,-0.0546,-0.0546,-0.0547,0,0.0423,0.046,0.0559,0.0612,0.0729,0.0847,0.0957,0.0991,0.1048,0.1175,0.1185,0.0929,0.0611,0.0315,-0.0157,-0.0465,-0.0471,-0.055,-0.0479,-0.0474,-0.047,-0.0465,-0.0516,-0.0517,-0.0517,-0.0518,0,0,0.0422,0.0445,0.0445,0.0539,0.0648,0.0818,0.0883,0.1006,0.1101,0.1164,0.1189,0.1132,0.0755,0.0424,0.0016,-0.0237,-0.0286,-0.0293,-0.029,-0.0155,-0.0146,-0.0421,-0.0405,0,0,0,0,0]}],[{"header":{"parameterUnit":"m.s-1","parameterCategory":2,"la1":30.2991,"la2":30.254,"lo1":-89.0895,"lo2":-89.0444,"dy":0.0017,"dx":0.0017,"nx":28,"ny":28,"refTime":"2024-05-22T21:00:00:Z","depth":"4","parameterNumber":2,"parameterNumberName":"U-component_of_CURRENTS"},"data":[0,0,0,0,0,0,0,0,0,0,0,0,0,0,0,0,0,0,0,0,0,0,0,0,0,0,0,0,0,0,0,0,0,0,0,0,0,0,0,0,0,0,0,0,0,0,0,0,0,0,0,0,0,0,0,0,0,0,0.1125,0.1126,0,0.1154,0.1154,0.1154,0.1219,0.1221,0.1222,0.1223,0.1328,0.1329,0.1331,0,0,0,0,0,0,0,0,0,0,0,0,0,0.1082,0.1083,0.1125,0.1126,0.1126,0.1154,0.1154,0.1155,0.1219,0.1221,0.1222,0.1224,0.1327,0.1329,0.1331,0,0,0,0,0,0,0,0,0,0,0,0,0,0.1104,0.1083,0.1125,0.1162,0.1166,0.1154,0.1154,0.1155,0.1219,0.1221,0.1223,0.1225,0.1327,0.1329,0.1331,0.1302,0,0,0.1338,0.1339,0,0,0,0,0,0,0,0,0.1103,0.1105,0.1157,0.116,0.1164,0.1186,0.1178,0.1208,0.1218,0.1197,0.1223,0.1226,0.1287,0.1292,0.129,0.1307,0.1311,0.1338,0.1339,0.134,0.1341,0,0,0,0,0,0,0,0.1101,0.1104,0.1136,0.1157,0.1161,0.1163,0.1168,0.1183,0.123,0.1199,0.1204,0.1209,0.1289,0.1288,0.1294,0.1313,0.1338,0.134,0.1341,0.1342,0.144,0.1441,0,0,0,0,0,0,0.11,0.1103,0.1135,0.1137,0.1139,0.1162,0.1168,0.1176,0.1229,0.1238,0.1207,0.1212,0.1283,0.1291,0.1298,0.1391,0.134,0.1342,0.1344,0.1439,0.144,0.1442,0,0,0,0,0,0,0.1099,0.1102,0.1134,0.1121,0.1125,0.1161,0.1169,0.1175,0.121,0.1234,0.1245,0.1239,0.1285,0.1295,0.1342,0.1392,0.1343,0.1345,0.1437,0.1439,0.1441,0.1499,0,0,0,0,0,0,0.1097,0.1102,0.1115,0.1121,0.1126,0.1148,0.1167,0.1174,0.1208,0.1215,0.1264,0.1274,0.1288,0.1338,0.1344,0.1394,0.1347,0.1436,0.1438,0.144,0.1495,0.1503,0.1509,0,0,0,0,0,0.1096,0.1089,0.1115,0.112,0.1141,0.1148,0.1151,0.1182,0.1208,0.1222,0.126,0.1275,0.1358,0.134,0.1347,0.1399,0.1434,0.1437,0.144,0.1492,0.1501,0.1509,0,0,0,0,0,0,0.1072,0.1095,0.1125,0.1127,0.1153,0.116,0.1167,0.1196,0.1233,0.1248,0.128,0.1292,0.136,0.1359,0.1339,0.1433,0.1403,0.1407,0.144,0.1449,0.1455,0.1424,0.1349,0,0,0,0,0,0.1075,0.1081,0.111,0.1115,0.1127,0.1157,0.1168,0.1193,0.122,0.124,0.1274,0.1315,0.1367,0.1393,0.1424,0.1461,0.1476,0.1501,0.1507,0.1513,0.1491,0.1578,0.1591,0.1451,0.1451,0.1451,0,0,0.1063,0.1079,0.1082,0.1112,0.113,0.1155,0.1169,0.1188,0.1228,0.1244,0.1303,0.134,0.1382,0.1439,0.1469,0.1451,0.1562,0.1517,0.1522,0.1496,0.1582,0.1596,0.1608,0.1453,0.1453,0.1452,0,0,0.1041,0.1064,0.107,0.1095,0.1133,0.1154,0.1171,0.1201,0.1238,0.1293,0.1328,0.1384,0.1448,0.1485,0.1516,0.1571,0.1599,0.1597,0.1604,0.1691,0.1703,0.1714,0.1756,0.1771,0.1597,0.1597,0.1597,0,0.1034,0.1055,0.1072,0.1094,0.1121,0.1163,0.1191,0.1225,0.1273,0.1318,0.1325,0.1448,0.1471,0.1563,0.1572,0.1588,0.1626,0.1576,0.1701,0.1711,0.1722,0.1763,0.1778,0.16,0.16,0.1599,0.1599,0,0.1022,0.1057,0.1057,0.1112,0.114,0.1162,0.1219,0.126,0.1316,0.1371,0.1475,0.1506,0.1588,0.1607,0.16,0.1691,0.1692,0.1707,0.1681,0.174,0.1779,0.1794,0.1605,0.1603,0.1603,0.1602,0,0,0.0967,0.104,0.1047,0.1099,0.1157,0.1184,0.1243,0.1327,0.1403,0.1462,0.1564,0.1624,0.1661,0.1692,0.1711,0.1745,0.1838,0.1742,0.1746,0.1784,0.2011,0.1889,0.1892,0.1892,0.1895,0.1897,0.2012,0,0.0968,0.1023,0.1055,0.1129,0.1171,0.1229,0.1295,0.1379,0.1458,0.1562,0.1628,0.1736,0.1698,0.1754,0.1787,0.1837,0.1878,0.1803,0.1946,0.1949,0.1834,0.1906,0.1906,0.2022,0.2026,0.2028,0.203,0,0.0954,0.1004,0.1071,0.1184,0.1208,0.1266,0.1392,0.1458,0.1598,0.1668,0.1769,0.1832,0.191,0.187,0.198,0.1943,0.1968,0.1983,0.199,0.1856,0.1853,0.1951,0.2056,0.2054,0.2052,0.205,0.2049,0,0.093,0.1019,0.1085,0.1118,0.124,0.1301,0.138,0.1508,0.1585,0.1753,0.1833,0.1949,0.2028,0.2081,0.2098,0.2069,0.22,0.2189,0.2099,0.2091,0.2141,0.2128,0.2264,0.2264,0.2263,0.2263,0.2263,0,0.0919,0.0976,0.1096,0.1139,0.1246,0.1329,0.1454,0.1549,0.1687,0.1789,0.1903,0.1983,0.2085,0.2162,0.2161,0.2169,0.2279,0.2096,0.2118,0.2162,0.215,0.2151,0.2137,0.2267,0.2266,0.2266,0.2265,0,0.0884,0.0955,0.1049,0.1192,0.1244,0.1331,0.1488,0.1561,0.1713,0.184,0.1901,0.2054,0.2153,0.2219,0.2312,0.2251,0.2274,0.225,0.228,0.2303,0.2088,0.2075,0.2168,0.2165,0.2162,0.216,0.2158,0,0.087,0.0911,0.1077,0.113,0.1204,0.1333,0.1404,0.1567,0.163,0.1854,0.1896,0.2062,0.214,0.2182,0.2254,0.2287,0.2249,0.2253,0.2146,0.2069,0.2082,0.2073,0.2065,0.2154,0.2153,0.2152,0.2152,0,0.0826,0.0894,0.0971,0.1085,0.1178,0.1267,0.1385,0.1432,0.1604,0.1755,0.1861,0.1939,0.2047,0.2108,0.2156,0.2164,0.2247,0.2224,0.2228,0.2127,0.2052,0.2066,0.2061,0.2142,0.2143,0.2144,0.2145,0,0.0787,0.0828,0.0917,0.1016,0.1108,0.1159,0.1254,0.1334,0.1431,0.1667,0.17,0.1878,0.2022,0.2047,0.2088,0.2096,0.2054,0.198,0.1996,0.2007,0.1899,0.1776,0.1803,0,0,0,0,0,0.073,0.0754,0.0825,0.0922,0.1001,0.1057,0.1196,0.1282,0.1459,0.1491,0.1593,0.1686,0.1787,0.1879,0.1853,0.2003,0.2047,0.1964,0.1964,0.2089,0.21,0.1985,0,0,0,0,0,0,0.069,0.074,0.0783,0.0791,0.0835,0.091,0.0999,0.1133,0.1159,0.1355,0.1415,0.1573,0.1683,0.1769,0.1811,0.1838,0.1804,0.2075,0.2071,0.2083,0.2093,0.2102,0.1988,0,0,0,0,0]},{"header":{"parameterUnit":"m.s-1","parameterCategory":2,"la1":30.2991,"la2":30.254,"lo1":-89.0895,"lo2":-89.0444,"dy":0.0017,"dx":0.0017,"nx":28,"ny":28,"refTime":"2024-05-22T21:00:00:Z","depth":"4","parameterNumber":3,"parameterNumberName":"V-component_of_CURRENTS"},"data":[0,0,0,0,0,0,0,0,0,0,0,0,0,0,0,0,0,0,0,0,0,0,0,0,0,0,0,0,0,0,0,0,0,0,0,0,0,0,0,0,0,0,0,0,0,0,0,0,0,0,0,0,0,0,0,0,0,0,0.005,0.005,0,0.0047,0.0047,0.0047,0.0006,0.0004,0.0003,0.0002,-0.008,-0.0081,-0.0082,0,0,0,0,0,0,0,0,0,0,0,0,0,0.0008,0.0009,0.005,0.005,0.005,0.0047,0.0047,0.0047,0.0006,0.0004,0.0003,0.0002,-0.0079,-0.008,-0.0082,0,0,0,0,0,0,0,0,0,0,0,0,0,0.0019,0.0009,0.005,0.0028,0.0026,0.0047,0.0047,0.0047,0.0006,0.0004,0.0002,0.0001,-0.0079,-0.008,-0.0082,-0.0056,0,0,-0.0087,-0.0087,0,0,0,0,0,0,0,0,0.0018,0.0021,0.0031,0.0029,0.0027,0.0023,0.0002,0.0008,0.0007,0.0015,0.0002,-0.0,-0.0052,-0.0056,-0.0049,-0.006,-0.0063,-0.0087,-0.0088,-0.0089,-0.0089,0,0,0,0,0,0,0,0.0018,0.0021,0.0051,0.0031,0.0029,0.0013,0.0013,0.0003,-0.0008,0.0014,0.0011,0.0008,-0.0054,-0.0047,-0.0052,-0.0064,-0.0087,-0.0088,-0.0089,-0.009,-0.0088,-0.0087,0,0,0,0,0,0,0.0018,0.002,0.0051,0.005,0.0016,0.0015,0.0015,0.0028,-0.0007,-0.0014,0.001,0.0007,-0.0044,-0.005,-0.0055,-0.0054,-0.0089,-0.009,-0.0091,-0.0089,-0.0088,-0.0087,0,0,0,0,0,0,0.0017,0.0021,0.0051,0.0033,0.0035,0.0018,0.0032,0.0028,0.003,-0.001,-0.0018,0.0014,-0.0046,-0.0053,-0.006,-0.0057,-0.0091,-0.0092,-0.009,-0.0088,-0.0087,-0.0034,0,0,0,0,0,0,0.0016,0.0022,0.0034,0.0033,0.0036,0.0074,0.0033,0.003,0.003,0.0026,-0.0009,-0.0018,-0.0047,-0.0057,-0.0062,-0.0059,-0.0093,-0.0091,-0.0089,-0.0088,-0.0037,-0.0031,-0.0026,0,0,0,0,0,0.0015,0.0053,0.0036,0.0039,0.0054,0.0075,0.0076,0.0057,0.0032,0.0049,0.0019,-0.0017,-0.0049,-0.0057,-0.0063,-0.0061,-0.0092,-0.009,-0.0088,-0.004,-0.0032,-0.0026,0,0,0,0,0,0,0.0046,0.0052,0.0033,0.0071,0.0071,0.0067,0.0084,0.0065,0.0058,0.0047,0.0002,-0.0008,-0.0019,-0.0036,-0.0044,-0.0053,-0.0079,-0.0077,-0.004,-0.0034,-0.0028,-0.0033,-0.0095,0,0,0,0,0,0.0057,0.0083,0.0078,0.0106,0.011,0.0095,0.01,0.0086,0.0077,0.0072,0.0047,0.0018,-0.0009,-0.0019,-0.0039,-0.0033,-0.0085,-0.0036,-0.003,-0.0025,-0.0032,-0.0113,-0.0116,-0.0079,-0.0079,-0.0079,0,0,0.0077,0.0081,0.0097,0.0113,0.0112,0.0126,0.0095,0.0112,0.0111,0.0064,0.0065,0.0037,-0.0003,-0.0006,-0.0012,-0.0023,-0.0058,-0.0022,-0.0018,-0.0027,-0.0111,-0.0115,-0.0119,-0.0078,-0.0078,-0.0078,0,0,0.0127,0.0134,0.0165,0.0168,0.0168,0.0161,0.0166,0.0164,0.0152,0.0154,0.0108,0.0086,0.0067,0.0033,0.0011,0.0041,-0.0029,0.0038,0.0065,-0.0013,-0.0018,-0.0022,-0.0075,-0.0085,0.0045,0.0045,0.0045,0,0.0144,0.0172,0.0178,0.0199,0.0196,0.0177,0.0193,0.0191,0.0184,0.0163,0.016,0.0099,0.0079,0.0036,0.0056,0.005,0.0001,0.004,-0.0009,-0.0015,-0.0021,-0.0074,-0.0086,0.0048,0.0048,0.0047,0.0047,0,0.0203,0.0217,0.024,0.0249,0.026,0.0274,0.0262,0.0263,0.0242,0.0217,0.0179,0.0151,0.0104,0.0105,0.0095,0.0048,0.0027,0.0002,-0.0032,-0.0022,-0.0077,-0.0091,0.0052,0.0051,0.005,0.0049,0,0,0.0247,0.0273,0.0274,0.0268,0.0277,0.0288,0.0295,0.0276,0.0253,0.0241,0.02,0.0177,0.0143,0.0118,0.0091,0.0048,-0.0011,0.0023,0.0017,-0.0038,-0.0174,-0.0145,-0.0157,-0.0053,-0.0055,-0.0057,-0.019,0,0.0273,0.0307,0.0317,0.0334,0.0341,0.0325,0.0327,0.0309,0.0282,0.0247,0.0193,0.0154,0.015,0.0128,0.0081,0.0006,-0.0046,0.0029,-0.0167,-0.0173,-0.0157,-0.0172,-0.0064,-0.0201,-0.0204,-0.0206,-0.0208,0,0.0306,0.0319,0.0343,0.0339,0.0342,0.0355,0.0327,0.0327,0.0276,0.0251,0.0196,0.015,0.009,0.0085,-0.0058,-0.0013,-0.0086,-0.014,-0.0148,-0.0154,-0.017,-0.0217,-0.0233,-0.0231,-0.0229,-0.0227,-0.0226,0,0.0296,0.0326,0.0336,0.0339,0.0348,0.0348,0.035,0.0319,0.0306,0.0247,0.0222,0.0128,0.0081,-0.0029,-0.0118,-0.0103,-0.028,-0.0287,-0.0337,-0.0336,-0.0347,-0.0341,-0.0408,-0.0407,-0.0407,-0.0407,-0.0406,0,0.0294,0.0296,0.0332,0.0331,0.0337,0.0349,0.0338,0.0325,0.0298,0.0278,0.022,0.0181,0.0049,-0.0056,-0.0144,-0.0276,-0.0317,-0.0342,-0.0376,-0.0316,-0.0305,-0.0356,-0.0348,-0.0412,-0.0411,-0.041,-0.0409,0,0.0256,0.0285,0.0291,0.0316,0.0328,0.0328,0.0346,0.0331,0.0319,0.0291,0.0275,0.0194,0.0071,-0.0062,-0.024,-0.0305,-0.0435,-0.0475,-0.0389,-0.0415,-0.0431,-0.0419,-0.0554,-0.0554,-0.0554,-0.0555,-0.0555,0,0.0225,0.0233,0.0274,0.0283,0.0293,0.0308,0.0315,0.0331,0.0327,0.0304,0.0286,0.0181,0.0114,-0.0106,-0.0248,-0.0446,-0.046,-0.0535,-0.0485,-0.0431,-0.0451,-0.0438,-0.0426,-0.0555,-0.0555,-0.0555,-0.0555,0,0.0159,0.0186,0.0195,0.0236,0.0256,0.0285,0.0308,0.0321,0.0342,0.0321,0.0305,0.0211,0.0072,-0.0085,-0.0243,-0.038,-0.049,-0.0538,-0.0538,-0.0491,-0.0434,-0.0451,-0.0438,-0.0556,-0.0556,-0.0556,-0.0556,0,0.0103,0.0104,0.0146,0.0189,0.0219,0.0277,0.0291,0.0318,0.0338,0.0342,0.0331,0.0215,0.0138,-0.0054,-0.0199,-0.0331,-0.0356,-0.0387,-0.0395,-0.0396,-0.0299,-0.0199,-0.0289,0,0,0,0,0,0.0062,0.0088,0.0101,0.0172,0.0208,0.0257,0.0295,0.0313,0.0348,0.0349,0.0357,0.0248,0.0071,-0.0017,-0.0142,-0.0228,-0.0405,-0.0381,-0.0451,-0.0561,-0.056,-0.0468,0,0,0,0,0,0,0.0031,0.0051,0.0094,0.0169,0.0223,0.0283,0.0326,0.0346,0.0357,0.0367,0.0274,0.0231,0.0044,0.0155,-0.0134,-0.0179,-0.0238,-0.0473,-0.0475,-0.0561,-0.056,-0.056,-0.0465,0,0,0,0,0]}]]